Reflectivity
-20 -20 -20 -20 -20 -20 -18 -4 -2 5 -6 6 12 11 0 1 4 -9 -13 -8 -10 -19 -20 -20 -20 -20 -20 -20 -20 -20 -20 -20 -20 -20 -19 2 -20 -20 -20 -20 -20 -20 13 -12
-3 -20 -20 -20 -20 -20 -20 -6 -3 4 -2 8 3 0 17 9 -16 -18 -6 -7 -18 -12 -8 -20 -20 -20 -20 -20 -20 -20 -20 -20 -20 -20 -20 -20 -20 -20 -20 -20 -20 -2 -20 -15
-20 -20 -20 -20 2 -20 -20 -20 -9 -16 -11 -20 -6 -11 -20 -2 9 -13 -8 -2 -19 -20 -20 -20 -20 -20 -20 -20 -20 -20 -20 -20 -20 -20 -20 -20 -20 -20 -20 -20 -8 -18 8 -18
-20 -20 -20 -12 -20 -20 -20 -20 -14 -20 -20 -7 -20 -2 -20 -20 -2 10 -1 -7 -8 -10 -18 -20 -20 -20 -20 -20 -20 -20 -20 -20 -20 -20 -20 -20 -20 -20 -20 -20 -20 -12 11 -12
-20 -20 -13 -13 -20 -20 -20 -20 -20 -20 -20 -20 -18 -17 -15 -20 -20 -19 7 9 7 7 -1 -4 -12 -20 -20 -20 -20 -20 -20 -20 -20 -20 -20 -20 -20 -20 -20 -20 12 -7 -18 14
-20 -20 -20 -20 -20 -20 -20 -20 -20 -20 -20 -20 -20 -14 -20 -11 -19 -20 -20 -17 6 8 12 6 -0 -19 -3 -12 -20 -20 -20 -20 -20 -20 -20 -20 -20 -20 -14 -19 -13 2 -20 21
-20 -20 -20 -20 -20 -20 -20 -20 -20 -20 -20 -20 -20 -20 -20 -20 -15 -20 -20 -20 -20 -20 -13 -11 -15 -13 -6 -19 -20 -20 -20 -20 -20 -20 -20 -20 -20 -20 -15 -1 5 -2 -15 2
-20 -20 -20 -20 -20 -20 -20 -20 -20 -20 -20 -20 -20 -20 -20 -20 -20 -20 -20 -20 -20 -20 -20 -20 -19 -15 -20 -20 -16 -20 -20 -20 -20 -20 -20 -20 -20 -20 -20 -20 -15 -18 -20 -20
-20 -20 -20 -20 -20 -20 -20 -20 -20 -20 -20 -20 -20 -20 -20 -20 -20 -20 -20 -20 -20 -20 -20 -20 -20 -20 -20 -20 -19 -20 -20 -20 -20 -20 -20 -20 -20 -20 -20 -20 -20 -18 -1 5
-20 -20 -20 -20 -20 -20 -20 -20 -20 -20 -20 -20 -20 -20 -20 -20 -20 -20 -20 -20 -20 -20 -20 -20 -20 -20 -20 -20 -20 -20 -20 -20 -20 -20 -20 -20 -20 -20 -20 -20 -20 -20 -7 -20
-20 -20 -20 -20 -20 -20 -20 -20 -20 -20 -20 -20 -20 -20 -20 -20 -20 -20 -20 -20 -20 -20 -20 -20 -20 -20 -20 -20 -20 -20 -20 -20 -20 -20 -20 -20 -20 -20 -20 -20 -20 -12 -20 -20
-20 -20 -20 -20 -20 -20 -20 -20 -20 -20 -20 -20 -20 -20 -20 -20 -20 -20 -20 -20 -20 -20 -20 -20 -20 -20 -20 -20 -20 -20 -20 -20 -20 -20 -20 -20 -20 -20 -20 -20 -20 -20 5 12
-20 -20 -20 -20 -20 -20 -20 -20 -20 -20 -20 -20 -20 -20 -20 -20 -20 -10 -20 -20 -20 -20 -20 -20 -20 -20 -20 -20 -20 -20 -20 -20 -20 -20 -20 -20 -20 -20 -20 -20 -20 -20 -20 -20
-20 -20 -20 -20 -20 -20 -20 -20 -20 -20 -20 -20 -20 -20 -20 -20 -20 -20 -20 -20 -20 -20 -20 -20 -20 -20 -20 -20 -20 -20 -20 -20 -20 -17 -20 -20 -20 -20 -20 -20 -20 -20 -20 -20
-20 -20 -20 -20 -20 -20 -20 -20 -20 -20 -20 -20 -20 -20 -20 -20 -20 -20 -20 -20 -20 -20 -20 -20 -20 -20 -20 -20 -20 -20 -20 -20 -20 -2 -20 -20 -20 -20 -20 -20 -20 -20 -20 -20
-20 -20 -20 -20 -20 -20 -20 -20 -20 -20 -20 -20 -20 -20 -20 -20 -20 -20 -20 -20 -20 -20 -20 -20 -20 -20 -20 -20 -20 -20 -20 -20 -20 -20 -20 -20 -20 -10 -20 -20 -20 -20 -20 -20
-20 -20 -20 -20 -20 -20 -20 -20 -20 -20 -20 -20 -20 -20 -20 -20 -20 -20 -20 -20 -20 -20 -20 -20 -20 -20 -20 -20 -20 -20 -20 -20 -20 -20 -20 -20 -20 -19 -20 -20 -20 -20 -20 -20
-20 -20 -20 -20 -20 -20 -20 -20 -20 -20 -20 -20 -20 -20 -20 -20 -20 -20 -20 -20 -20 -20 -20 -20 -20 -20 -20 -20 -20 -20 -20 -20 -20 -20 -20 -20 -20 -20 -20 -20 -20 -20 -20 -20
-20 -20 -20 -20 -20 -20 -20 -20 -20 -20 -20 -20 -20 -20 -20 -20 -20 -20 -20 -20 -20 -20 -20 -20 -20 -20 -20 -20 -16 -20 -20 -20 -20 -20 -20 -13 -20 -20 -20 -20 -20 -20 -20 -20
-20 -20 -20 -20 -20 -20 -20 -20 -20 -20 -20 -20 -20 -20 -20 -20 -20 -20 -20 -20 -20 -20 -20 -20 -20 -20 -20 -20 -20 -20 -20 -20 -20 -20 -20 -20 -20 -20 -20 -20 -20 -20 -20 -20
-20 -20 -20 -20 -20 -20 -20 -20 -20 -20 -20 -20 -20 -20 -20 -20 -20 -20 -20 -20 -20 -20 -18 -20 -20 -20 -20 -20 -20 -20 -20 -20 -20 -20 -20 -20 -20 -20 -20 -20 -20 -20 -20 -20
-20 -20 -20 -20 -20 -20 -20 -20 -20 -20 -20 -20 -20 -20 -20 -20 -20 -20 -20 -20 -20 -20 -13 -20 -20 -20 -10 6 -1 -16 -20 -20 -20 -20 -20 -20 -20 -20 -20 -20 -20 -20 -20 -20
-20 -20 -20 -20 -20 -20 -20 -20 -20 -20 -20 -20 -20 -20 -20 -20 -20 -20 -20 -20 -20 -20 -15 -20 -4 8 8 -7 -20 -20 -20 -20 -20 -20 -20 -20 -20 -20 -20 -20 -20 -20 -20 -20
-20 -20 -20 -20 -20 -20 -20 -20 -20 -20 -20 -20 -20 -20 -20 -20 -20 -20 -20 -19 2 -2 -14 -4 -6 9 15 -13 -20 -20 -20 -20 -20 -20 -20 -20 -20 -20 -20 -20 -20 -20 -20 -20
-20 -20 -20 -20 -20 -20 -20 -20 -20 -20 -20 -20 -20 -20 -20 -20 -20 -20 -20 -20 -20 -20 -20 -5 4 2 -1 -16 -20 -20 -20 -20 -20 -20 -20 -20 -20 -20 -20 -20 -20 -20 -20 -20
-20 -20 -20 -20 -20 -20 -20 -20 -20 -20 -20 -20 -20 -20 -20 -20 -20 -20 -20 -20 -14 -20 -20 -20 -20 -20 -20 -20 -20 -20 -20 -20 -20 -20 -11 -20 -20 -20 -20 -20 -20 -20 -20 -20
-20 -4 -20 -20 -20 -20 -20 -8 -20 -20 -20 -20 -20 -20 -20 -20 -20 -20 -9 -20 -20 -20 -20 -20 -20 -20 -20 -20 -15 -17 -20 -20 -4 -9 -20 -20 -20 -20 -20 -20 -20 -20 -20 -20
Wind_Speed
9 9 13 15 16 16 19 6 3 7 12 7 7 9 9 9 9 11 11 12 12 12 10 10 11 11 11 11 11 11 10 10 11 11 10 9 9 8 9 8 7 8 5 5
4 8 16 15 17 16 13 11 11 11 10 7 8 8 10 11 11 11 11 12 12 12 13 12 13 12 12 11 11 10 10 10 11 11 12 10 10 10 9 10 9 9 6 6
2 6 9 7 11 10 7 12 4 5 3 7 7 9 9 8 10 10 11 11 12 12 12 11 11 12 10 10 10 10 9 10 10 11 11 11 11 10 10 10 9 8 9 5
2 4 5 1 5 6 11 9 9 6 6 5 4 4 6 8 8 8 9 9 9 10 11 10 10 10 9 9 9 9 9 10 10 11 11 11 10 11 10 9 10 8 7 8
4 3 2 2 4 4 4 3 6 6 6 6 7 4 4 8 7 7 8 7 8 8 10 10 11 11 10 10 9 10 11 11 11 11 11 11 12 12 9 10 10 8 7 7
2 5 1 4 4 4 3 2 4 4 5 9 11 5 3 8 7 7 7 7 8 10 9 9 10 10 10 10 10 11 12 12 11 11 10 10 10 11 10 10 10 7 8 4
3 3 3 3 6 1 3 1 5 5 5 5 3 3 8 7 6 6 6 7 7 8 8 9 9 9 9 10 11 11 12 11 10 10 10 9 10 10 10 10 10 9 8 7
2 3 3 2 3 5 2 2 2 3 4 6 6 7 7 7 7 7 7 8 8 7 8 8 9 10 10 8 10 11 11 12 11 10 9 8 10 9 10 9 9 7 6 7
5 4 1 1 5 4 4 4 3 2 3 4 6 5 7 7 7 6 7 7 5 4 7 7 7 7 9 11 11 11 10 11 10 10 9 9 9 9 8 8 7 7 6 6
5 4 3 3 3 3 5 4 4 4 3 4 5 6 6 6 5 6 6 7 6 6 6 7 7 9 8 10 10 10 10 10 9 9 10 9 7 7 6 6 6 7 8 7
5 6 5 4 5 4 2 3 3 4 4 5 3 6 4 5 5 5 5 5 5 5 5 6 7 8 8 9 9 9 10 10 9 8 8 8 8 7 7 7 8 8 8 8
6 7 5 7 4 2 3 5 6 4 4 5 3 7 4 6 6 3 7 5 6 6 5 6 7 8 8 7 8 9 9 9 8 7 7 8 8 9 13 14 17 17 17 13
5 4 6 5 7 4 4 5 4 5 7 5 5 5 3 4 3 6 3 6 5 6 5 6 6 7 7 5 7 8 9 10 7 9 6 7 7 9 11 12 17 16 17 19
4 2 5 2 4 4 6 7 7 5 6 7 6 3 4 5 5 6 7 6 4 4 6 6 6 8 6 4 5 6 6 12 7 7 7 7 7 8 8 9 10 10 14 17
9 10 6 2 5 6 4 2 4 6 5 5 6 7 4 7 7 7 7 6 4 4 7 5 6 9 6 4 5 6 5 6 6 6 7 8 7 8 7 8 8 9 10 12
2 4 3 5 8 7 4 4 4 7 5 5 6 6 8 8 8 7 6 4 3 5 6 5 6 7 6 4 5 5 3 13 11 5 6 7 6 6 7 7 7 7 7 9
1 5 2 4 6 4 6 6 6 7 7 7 7 7 6 6 5 6 6 6 5 7 7 6 8 7 6 6 4 4 3 4 11 3 5 5 5 5 6 7 6 6 7 9
8 5 5 5 6 6 7 7 6 7 7 8 7 6 6 5 7 6 5 5 5 6 6 7 6 7 6 5 4 3 2 3 3 4 4 5 5 4 5 6 6 7 7 7
8 11 9 9 8 7 6 6 6 6 5 5 5 7 5 6 6 5 5 4 5 5 7 6 11 10 3 7 7 3 2 3 2 3 4 7 5 5 5 6 6 7 7 7
8 7 8 9 8 7 7 5 5 5 6 5 5 5 5 6 5 5 5 6 6 5 6 8 7 6 6 7 12 3 3 1 2 3 4 2 4 4 5 9 8 6 6 6
8 7 8 7 6 5 4 4 4 5 6 5 5 5 5 6 5 5 5 4 5 6 8 12 4 3 4 8 8 3 2 1 2 3 3 3 4 3 4 5 5 6 6 6
6 5 6 5 4 4 3 4 4 5 4 4 5 5 5 6 6 5 6 6 5 13 6 4 4 10 9 17 2 5 3 2 3 3 3 3 4 4 4 4 5 5 5 6
5 4 5 4 2 3 4 4 4 3 5 5 5 5 5 4 4 4 5 5 4 9 8 4 8 16 17 4 3 4 4 4 4 4 3 3 4 3 3 4 5 5 5 5
4 4 3 3 2 3 3 3 3 4 5 5 5 5 4 4 5 4 5 10 13 12 8 6 12 17 11 3 2 3 4 4 4 4 4 7 3 3 3 3 4 5 4 6
4 4 3 3 3 2 4 4 5 5 4 5 6 5 5 4 4 5 4 4 13 11 5 9 15 17 5 3 4 4 4 4 4 4 5 4 4 3 3 3 3 5 2 3
4 3 2 3 3 3 3 3 4 2 4 4 5 5 5 4 4 5 5 8 4 10 5 5 4 6 5 3 4 5 5 5 6 3 5 4 4 3 3 3 3 3 3 3
4 6 1 3 3 3 4 5 3 4 5 5 8 6 4 5 6 7 8 5 6 6 5 5 4 7 6 6 5 4 3 4 7 5 5 4 4 4 4 4 3 3 3 3
Wind_Direction
120 102 71 46 27 18 43 34 54 118 83 67 56 64 59 58 54 47 40 33 27 18 15 12 9 6 2 358 354 350 355 2 359 351 341 340 345 344 343 330 326 290 233 200
133 114 74 55 32 30 27 17 55 64 52 32 56 63 53 42 41 40 31 25 25 17 13 9 3 0 356 351 351 352 357 358 352 349 347 342 342 341 347 337 342 338 260 218
227 256 263 20 5 40 54 40 9 56 29 12 55 53 36 38 37 29 22 15 15 10 7 2 356 352 346 343 346 355 356 353 350 350 340 337 338 342 347 336 333 339 328 249
266 8 48 131 12 81 76 38 28 49 23 7 355 82 57 20 29 17 12 5 5 1 357 352 346 348 341 345 353 356 357 351 347 343 340 334 335 339 338 331 327 327 327 328
98 53 185 147 15 341 353 50 18 353 351 340 314 253 97 28 19 7 354 353 345 354 354 348 349 346 344 350 353 356 354 347 342 338 334 332 333 330 322 319 314 321 315 320
62 93 91 241 334 331 291 258 5 358 346 340 335 180 94 357 356 357 350 350 344 350 343 348 349 346 347 352 352 355 347 337 332 332 330 323 318 319 314 306 301 301 305 301
10 100 293 263 304 311 243 16 341 347 338 343 357 325 311 325 342 350 342 349 352 345 336 340 345 341 351 350 355 339 335 332 331 332 326 317 322 313 314 308 303 295 304 303
340 52 354 13 356 138 239 304 313 337 326 318 316 314 317 325 334 339 339 346 351 341 329 334 344 340 339 342 337 337 332 330 330 329 327 323 325 315 317 308 304 302 302 303
161 212 256 275 180 246 175 192 265 185 281 302 291 304 317 319 322 325 332 327 322 327 323 328 335 336 328 326 337 337 334 331 329 329 319 337 326 326 322 323 321 325 311 309
36 300 252 264 281 220 189 221 251 233 249 285 266 289 293 301 312 315 315 316 328 338 336 325 331 331 315 320 331 333 330 330 329 326 345 333 330 325 318 315 323 319 323 318
268 293 313 278 233 210 224 243 265 280 238 235 248 283 274 294 299 291 294 299 317 318 317 306 318 312 312 328 327 330 329 338 329 335 345 331 332 313 309 302 307 314 308 308
235 228 167 251 257 230 226 251 241 210 286 268 213 258 202 260 259 254 282 299 318 312 309 302 311 307 309 323 335 329 330 333 322 338 325 342 329 316 320 321 321 317 311 307
225 195 209 255 265 226 218 242 232 226 225 259 256 226 225 259 268 273 255 283 270 272 283 282 295 299 300 314 323 328 330 326 331 331 320 332 322 330 325 330 331 331 337 334
216 140 313 216 240 227 227 264 286 262 253 237 248 222 221 238 297 284 277 253 256 276 284 286 294 291 289 289 306 312 305 329 327 316 333 324 330 327 326 330 331 329 336 334
228 219 234 261 284 258 226 282 283 276 264 277 232 244 204 248 249 251 258 267 271 265 267 266 277 284 287 287 301 300 306 316 327 334 327 331 326 323 322 325 334 327 325 334
241 205 230 223 265 277 229 253 237 272 256 256 249 243 237 229 248 260 259 216 198 262 270 262 266 262 275 275 289 295 288 330 341 343 322 324 321 332 330 327 329 333 331 328
246 291 190 239 230 246 238 253 248 263 276 276 271 267 264 255 247 251 261 260 237 237 236 236 257 266 256 260 241 276 280 305 334 317 310 319 308 340 327 320 323 326 323 321
238 255 240 233 250 258 266 251 256 259 259 269 278 278 274 273 269 270 261 264 277 285 276 264 250 254 247 247 248 237 242 272 298 309 311 307 330 330 323 314 322 323 328 327
223 247 248 241 236 238 251 258 256 258 272 274 281 277 271 273 274 267 282 276 268 272 277 272 284 292 269 275 298 188 226 271 301 294 302 323 337 321 329 325 328 328 336 335
271 244 244 248 242 224 247 247 269 273 270 274 274 274 281 282 284 282 277 262 257 248 268 270 271 262 265 271 288 176 214 223 282 294 303 343 321 334 320 337 341 333 335 337
286 281 265 254 242 236 247 261 270 269 277 272 268 263 272 279 278 273 274 271 270 270 276 285 293 252 259 275 269 181 201 240 290 296 301 297 308 317 310 317 324 329 330 330
303 296 291 283 263 263 279 291 281 277 278 288 290 283 280 275 276 274 251 248 275 293 287 262 259 276 268 275 173 165 189 205 252 278 292 312 310 313 312 317 314 326 329 322
293 286 296 288 302 306 316 297 288 287 302 297 289 287 282 275 274 281 286 273 279 281 283 276 270 277 287 124 153 179 201 210 223 232 248 260 276 283 296 309 315 320 323 328
316 1 1 5 351 326 316 327 323 311 299 293 289 285 281 295 289 257 269 298 308 301 285 304 298 293 296 127 202 224 222 223 225 228 237 262 240 259 273 284 300 308 308 333
346 329 336 347 348 345 326 320 315 304 306 301 294 295 293 276 244 288 277 283 306 306 299 318 309 318 329 275 243 236 236 237 233 231 230 223 236 239 256 266 273 281 307 314
334 314 317 15 325 317 305 299 285 307 303 307 304 298 295 285 289 318 295 296 307 310 319 302 278 284 280 289 252 235 237 239 251 263 239 219 217 220 236 253 262 276 279 286
326 341 310 332 322 314 300 295 349 321 319 307 292 296 318 308 302 311 318 319 303 298 293 288 275 288 278 274 270 258 266 248 255 221 231 237 216 216 221 232 245 257 271 283